Total_Precipitation_Accumulation
3.63 3.22 3.25 2.82 2.61 2.66 2.07 1.99 1.94 2.04 2.13 2.41 2.55 2.43 2.35 2.45 3.19 4.35 4.80 3.42 6.01 5.78 3.29 1.73 1.20 1.04 0.87 1.29 2.24 2.25 2.37 2.72 3.26 4.17 4.73 3.69 2.28 1.24 0.80 0.68 1.01 1.07 1.50 1.63 1.62 2.35 1.78 0.24 0.33 0.98 1.65 0.97 0.84 0.74
3.88 3.31 3.32 3.00 2.64 2.57 2.07 2.04 2.02 2.01 1.97 2.08 2.47 2.38 2.46 2.60 3.37 4.09 4.76 3.53 4.52 5.96 4.24 1.96 1.41 1.04 0.97 1.10 1.78 2.57 2.68 2.12 2.26 3.01 3.41 2.97 2.58 1.82 1.21 1.11 1.00 1.34 1.10 1.41 1.28 1.23 0.68 0.50 0.57 0.44 0.26 0.20 0.20 0.49
3.88 3.62 3.73 2.97 2.70 2.55 2.19 2.03 1.91 2.01 2.09 2.10 2.49 2.62 2.39 2.77 3.40 4.08 4.23 3.60 6.06 7.97 5.11 2.60 1.65 0.88 0.65 0.85 1.47 2.89 2.86 2.05 2.17 2.73 3.39 3.84 3.56 2.36 1.76 1.28 1.09 1.19 0.89 1.62 1.56 0.91 0.40 0.40 0.39 0.22 0.25 0.32 0.24 0.32
3.84 3.57 3.50 2.99 2.82 2.39 1.98 1.92 1.82 1.95 2.00 2.41 2.95 3.04 2.74 3.18 3.78 4.36 4.37 4.00 4.92 6.09 5.40 2.96 1.31 0.86 0.52 0.48 0.91 1.36 1.62 2.04 2.83 3.75 4.76 4.88 3.70 2.34 1.93 1.38 1.13 0.86 1.23 1.83 1.81 1.18 0.72 0.48 0.48 0.57 0.45 0.41 0.39 0.36
3.57 3.44 3.38 2.95 3.12 2.57 2.13 2.06 2.05 2.02 2.07 2.55 3.29 3.13 3.05 3.29 4.41 5.15 4.63 4.27 3.46 4.18 4.69 2.53 1.40 1.09 0.84 0.57 0.66 0.94 1.52 2.22 3.15 4.50 4.97 3.58 2.04 1.96 1.68 1.47 1.22 0.46 1.09 1.61 2.24 1.64 1.53 1.15 0.85 0.80 0.78 0.42 0.20 0.22
3.34 3.52 3.27 2.78 2.57 2.29 2.37 2.39 2.21 2.01 2.08 2.67 3.07 3.09 2.90 3.58 5.88 8.56 10.75 6.47 3.71 3.11 4.64 3.35 1.95 1.43 1.12 0.98 0.95 1.27 1.47 2.16 3.28 3.86 3.65 2.43 1.28 1.80 2.75 1.52 0.39 0.25 0.39 0.69 1.25 1.56 1.55 1.46 0.95 0.72 0.59 0.63 0.53 0.40
2.99 2.95 2.68 2.26 2.13 2.04 2.36 2.19 2.07 2.23 2.57 2.89 2.82 3.24 3.27 4.28 6.77 7.60 5.54 3.78 2.79 3.49 5.94 3.77 2.14 1.69 1.54 1.46 1.57 1.58 1.91 2.16 2.63 3.28 2.80 1.66 0.98 1.92 3.02 1.56 0.30 0.42 0.54 0.68 0.79 1.02 1.09 1.04 0.75 0.38 0.41 0.49 0.53 0.50
2.61 2.44 2.12 2.00 2.14 2.17 1.96 1.83 2.03 2.53 2.98 2.79 3.02 3.67 4.63 6.36 7.51 5.08 2.10 1.68 2.57 4.27 4.31 3.53 2.30 2.41 1.98 2.12 1.96 1.84 2.12 2.55 3.05 2.84 2.04 1.41 1.62 2.36 2.58 0.45 0.13 0.31 0.49 0.55 0.48 0.57 0.79 0.78 1.03 0.74 0.50 0.64 0.78 0.54
2.28 1.95 1.61 1.66 2.26 2.49 2.08 1.91 2.28 2.72 3.31 3.36 4.14 5.79 8.44 8.73 7.56 4.40 2.87 2.74 3.79 5.26 4.50 2.13 1.52 2.48 2.13 2.76 2.37 2.39 2.45 3.27 2.69 2.10 1.27 1.58 2.05 2.58 1.11 0.49 0.51 0.44 0.73 0.82 0.71 0.63 0.69 0.84 0.97 1.01 0.69 0.63 0.70 0.74
2.00 1.36 1.29 1.43 1.88 2.33 2.34 2.24 2.57 3.39 4.05 4.85 6.00 8.02 9.34 6.06 4.02 4.16 6.26 6.80 6.37 5.12 3.21 1.59 0.80 1.96 2.36 2.57 2.76 2.97 2.67 2.70 2.61 1.33 1.21 1.88 1.41 0.78 0.47 0.65 0.89 0.95 0.97 1.07 1.24 1.16 0.89 0.82 0.69 0.79 0.65 0.48 0.53 0.65
1.53 1.14 1.11 1.35 1.64 1.79 1.82 1.95 2.50 3.26 4.46 5.88 6.16 6.54 6.01 4.29 4.12 4.98 5.28 4.38 3.19 2.25 1.39 1.07 0.87 1.40 1.93 2.74 2.80 2.82 2.87 2.09 1.73 1.27 1.43 1.48 0.88 0.97 0.83 1.04 1.15 1.23 1.26 1.29 1.52 1.68 1.13 0.77 0.58 0.66 0.63 0.55 0.60 0.75
1.32 1.05 1.10 1.13 1.26 1.50 1.53 1.78 2.28 2.39 3.29 3.53 3.75 4.36 4.94 4.40 4.18 3.78 2.94 1.77 1.12 0.79 0.70 0.79 0.90 1.17 1.97 2.80 3.33 3.49 3.02 2.44 1.80 1.49 2.16 1.29 1.05 0.85 0.89 0.99 0.76 0.99 1.20 1.34 1.62 1.89 1.43 0.95 0.79 0.75 0.74 0.84 0.84 0.92
1.22 1.00 0.97 1.13 1.18 1.23 1.16 1.50 1.54 1.61 2.18 2.94 3.56 4.80 4.82 3.91 3.31 2.28 1.29 0.71 0.63 0.52 0.57 0.71 1.26 1.41 1.62 2.22 3.31 2.70 2.54 1.98 1.84 2.28 1.43 0.93 0.61 0.41 0.47 0.59 0.75 0.90 1.02 1.18 1.36 1.70 1.50 1.52 1.57 1.34 1.52 1.66 1.57 1.68
0.92 0.83 0.89 1.15 1.12 1.19 1.34 1.42 1.52 2.33 2.87 3.22 3.21 3.43 2.83 2.33 1.63 1.26 0.80 0.68 0.62 0.55 0.67 0.95 1.41 1.37 1.39 1.94 2.55 2.33 1.90 1.54 1.86 1.73 1.07 1.06 1.01 0.78 0.59 0.61 0.68 0.88 0.92 1.07 1.48 1.51 1.50 1.47 1.89 2.02 1.95 1.98 1.61 1.72
0.77 0.91 1.17 1.37 1.31 1.37 1.61 1.38 1.69 1.76 1.89 2.15 2.19 2.04 1.36 1.60 1.18 0.96 0.85 0.79 0.88 1.03 1.35 1.83 2.04 1.70 1.61 1.92 1.62 1.58 1.53 1.27 0.96 1.00 1.44 1.43 1.02 0.75 0.76 0.74 0.77 0.87 0.93 1.06 1.12 1.11 1.21 1.05 0.91 1.36 1.51 1.33 0.98 1.06
1.21 1.33 1.29 1.18 1.14 1.43 1.49 1.40 1.64 1.56 1.49 1.15 1.15 1.19 1.03 1.24 1.19 1.04 1.11 1.11 1.04 1.55 1.73 2.23 2.18 2.05 1.86 1.34 1.26 0.94 0.76 0.83 1.18 1.10 1.01 0.75 0.72 0.82 0.90 0.95 1.05 1.08 0.92 0.93 0.87 0.73 0.74 0.65 0.50 0.71 0.79 0.68 0.67 0.53
1.31 1.12 1.16 1.06 1.16 1.24 1.16 1.33 1.50 1.40 1.01 0.79 0.90 1.00 1.05 1.20 1.22 1.16 1.14 1.01 0.98 1.41 1.39 1.34 1.31 1.38 1.36 1.07 0.94 0.93 1.18 1.30 1.25 1.00 0.69 0.57 0.67 0.86 0.95 0.99 1.07 1.02 0.79 0.67 0.61 0.58 0.63 0.59 0.46 0.36 0.46 0.64 0.49 0.47
1.49 1.01 1.00 0.94 1.16 1.49 1.47 1.19 1.07 0.77 0.62 0.71 0.86 1.13 0.94 1.23 1.22 1.05 1.05 1.02 1.35 1.36 1.05 1.17 0.75 0.67 0.73 0.77 0.97 1.30 1.22 1.06 0.81 0.80 0.92 0.96 0.89 0.95 0.94 0.95 1.00 0.84 0.71 0.74 0.67 0.67 0.66 0.62 0.51 0.58 0.54 0.55 0.42 0.43
1.12 1.00 0.96 0.89 0.95 0.98 1.05 0.80 0.56 0.72 0.77 0.74 0.82 0.76 0.68 0.84 0.89 1.00 0.95 0.92 1.20 1.23 1.14 0.96 0.84 0.73 0.89 1.06 1.11 1.04 1.03 0.81 0.86 0.99 1.07 1.13 1.04 0.97 1.02 0.98 0.93 0.89 0.78 0.83 0.72 0.66 0.67 0.63 0.58 0.54 0.50 0.45 0.44 0.44
1.35 1.23 0.97 0.87 0.68 0.66 0.57 0.51 0.23 0.25 0.49 0.57 0.64 0.46 0.40 0.59 0.46 0.34 0.40 0.56 0.81 1.33 1.36 1.07 1.13 1.34 1.33 1.31 1.19 1.09 1.11 0.88 0.70 0.68 0.96 1.15 1.17 0.91 0.96 0.82 0.80 0.78 0.67 0.68 0.65 0.59 0.51 0.46 0.48 0.44 0.39 0.36 0.37 0.38
1.17 1.24 0.88 0.84 0.65 0.61 0.50 0.55 0.47 0.19 0.23 0.39 0.36 0.19 0.31 0.16 0.11 0.12 0.12 0.22 0.83 1.25 1.40 1.46 1.40 1.47 1.47 1.39 1.12 0.90 0.90 0.76 0.78 0.63 0.76 0.97 1.05 0.73 0.78 0.84 0.72 0.63 0.57 0.61 0.57 0.57 0.46 0.46 0.42 0.36 0.42 0.44 0.40 0.42
0.69 0.80 0.85 0.61 0.65 0.44 0.30 0.09 0.31 0.34 0.21 0.20 0.22 0.21 0.31 0.27 0.21 0.18 0.19 0.42 0.86 0.99 1.09 1.14 1.12 1.02 0.93 1.03 1.11 0.94 0.96 0.67 0.59 0.55 0.61 0.61 0.71 0.74 0.80 0.85 0.66 0.66 0.62 0.61 0.49 0.45 0.39 0.33 0.31 0.30 0.34 0.41 0.39 0.45
0.77 0.90 0.95 0.67 0.57 0.40 0.24 0.08 0.10 0.21 0.33 0.25 0.18 0.21 0.24 0.36 0.34 0.22 0.31 0.33 0.69 0.93 0.80 0.66 0.73 0.71 0.73 0.93 0.67 0.67 0.78 0.61 0.60 0.64 0.67 0.63 0.62 0.65 0.60 0.63 0.57 0.51 0.47 0.47 0.43 0.43 0.42 0.35 0.32 0.34 0.34 0.37 0.46 0.45
0.56 0.87 0.87 0.62 0.41 0.35 0.17 0.19 0.11 0.12 0.18 0.28 0.28 0.17 0.19 0.19 0.11 0.15 0.29 0.45 0.72 0.53 0.42 0.56 0.47 0.47 0.46 0.45 0.51 0.62 0.76 0.53 0.49 0.52 0.57 0.39 0.34 0.41 0.34 0.36 0.37 0.41 0.46 0.42 0.35 0.39 0.38 0.44 0.44 0.41 0.40 0.42 0.46 0.45
0.53 0.44 0.48 0.42 0.22 0.16 0.11 0.11 0.11 0.09 0.10 0.10 0.27 0.30 0.16 0.07 0.12 0.17 0.26 0.57 0.47 0.44 0.45 0.39 0.30 0.32 0.43 0.54 0.59 0.55 0.43 0.31 0.30 0.33 0.41 0.30 0.31 0.34 0.29 0.29 0.31 0.34 0.33 0.32 0.33 0.38 0.44 0.44 0.44 0.40 0.39 0.41 0.42 0.42
0.44 0.20 0.19 0.19 0.16 0.11 0.07 0.09 0.11 0.12 0.09 0.11 0.23 0.26 0.25 0.21 0.15 0.28 0.40 0.59 0.49 0.47 0.51 0.49 0.41 0.27 0.28 0.29 0.31 0.30 0.26 0.21 0.18 0.24 0.28 0.22 0.24 0.31 0.29 0.27 0.33 0.38 0.25 0.36 0.43 0.44 0.38 0.33 0.35 0.34 0.36 0.39 0.43 0.43
0.32 0.16 0.08 0.08 0.21 0.30 0.25 0.16 0.18 0.20 0.20 0.24 0.25 0.20 0.32 0.35 0.31 0.42 0.46 0.43 0.40 0.42 0.34 0.30 0.24 0.20 0.22 0.22 0.17 0.16 0.14 0.10 0.14 0.22 0.26 0.21 0.20 0.24 0.31 0.42 0.43 0.47 0.30 0.33 0.40 0.42 0.42 0.40 0.41 0.39 0.41 0.45 0.44 0.46
0.13 0.10 0.16 0.18 0.25 0.29 0.38 0.33 0.31 0.30 0.36 0.30 0.31 0.28 0.32 0.36 0.48 0.50 0.47 0.46 0.35 0.26 0.18 0.16 0.16 0.16 0.18 0.22 0.22 0.18 0.19 0.16 0.16 0.22 0.23 0.26 0.23 0.26 0.28 0.29 0.28 0.23 0.22 0.29 0.30 0.31 0.34 0.40 0.45 0.44 0.45 0.43 0.45 0.42
0.16 0.12 0.12 0.14 0.17 0.16 0.23 0.30 0.38 0.36 0.32 0.29 0.34 0.31 0.27 0.36 0.62 0.57 0.52 0.36 0.30 0.24 0.23 0.21 0.30 0.21 0.21 0.27 0.22 0.15 0.19 0.23 0.30 0.36 0.41 0.54 0.46 0.43 0.26 0.21 0.21 0.20 0.21 0.24 0.24 0.28 0.30 0.35 0.36 0.37 0.46 0.48 0.47 0.52
0.11 0.08 0.12 0.10 0.10 0.17 0.32 0.23 0.29 0.21 0.12 0.14 0.14 0.16 0.20 0.48 0.70 0.54 0.47 0.37 0.36 0.39 0.41 0.34 0.33 0.26 0.26 0.23 0.31 0.29 0.35 0.30 0.30 0.39 0.45 0.45 0.41 0.37 0.24 0.20 0.19 0.20 0.19 0.19 0.21 0.26 0.27 0.26 0.28 0.30 0.31 0.37 0.45 0.52
0.15 0.17 0.20 0.17 0.22 0.33 0.31 0.17 0.20 0.18 0.20 0.19 0.18 0.19 0.31 0.48 0.54 0.38 0.35 0.48 0.35 0.31 0.30 0.29 0.29 0.30 0.31 0.33 0.37 0.41 0.54 0.43 0.32 0.34 0.37 0.39 0.34 0.26 0.22 0.19 0.19 0.18 0.17 0.16 0.19 0.24 0.26 0.28 0.31 0.34 0.32 0.33 0.36 0.35
0.23 0.31 0.33 0.30 0.43 0.37 0.32 0.40 0.34 0.36 0.33 0.32 0.33 0.23 0.36 0.33 0.33 0.43 0.36 0.38 0.43 0.39 0.39 0.36 0.38 0.43 0.44 0.50 0.49 0.50 0.49 0.44 0.29 0.27 0.27 0.26 0.24 0.21 0.17 0.14 0.16 0.19 0.20 0.18 0.20 0.22 0.22 0.26 0.32 0.32 0.34 0.31 0.29 0.28
0.28 0.29 0.36 0.43 0.43 0.44 0.42 0.45 0.41 0.39 0.40 0.39 0.43 0.46 0.45 0.38 0.42 0.56 0.42 0.45 0.67 0.66 0.53 0.52 0.54 0.52 0.51 0.44 0.37 0.39 0.37 0.37 0.34 0.27 0.23 0.21 0.16 0.13 0.12 0.14 0.15 0.17 0.18 0.20 0.24 0.23 0.22 0.19 0.20 0.20 0.19 0.18 0.19 0.16